contact:dominique.lefevre@mio.osupytheas.fr, maurice.libes@osupytheas.fr, didier.mallarino@osupytheas.fr
Project:EMSO http://www.emso-fr.org/EMSO-France
Depth: 2436.0 m
Title:EMSO Ligure Ouest : Data MII capteur MICROCAT
DateTime_Computer,Latitude,Longitude,Temperature,Conductivity,Pressure,DateTime_Instrument
DateTime_Computer,Latitude,Longitude,degC,S m-1,dbar,DateTime_Instrument
2017-11-22T00:02:11Z,42.805,6.029,13.2984,4.60024,2472.047,2017-11-22T02:03:39Z
2017-11-22T00:05:14Z,42.805,6.029,13.2979,4.60043,2472.047,2017-11-22T02:06:42Z
2017-11-22T00:08:17Z,42.805,6.029,13.2987,4.60046,2472.047,2017-11-22T02:09:45Z
2017-11-22T00:11:20Z,42.805,6.029,13.2965,4.60040,2472.069,2017-11-22T02:12:48Z
2017-11-22T00:14:23Z,42.805,6.029,13.2975,4.60048,2472.077,2017-11-22T02:15:51Z
2017-11-22T00:17:26Z,42.805,6.029,13.2964,4.60032,2472.01,2017-11-22T02:18:54Z
2017-11-22T00:20:29Z,42.805,6.029,13.2972,4.60029,2472.047,2017-11-22T02:21:57Z
2017-11-22T00:23:32Z,42.805,6.029,13.2968,4.60041,2472.069,2017-11-22T02:24:59Z
2017-11-22T00:26:34Z,42.805,6.029,13.2967,4.60055,2472.047,2017-11-22T02:28:02Z
2017-11-22T00:29:37Z,42.805,6.029,13.2975,4.60074,2472.069,2017-11-22T02:31:05Z
2017-11-22T00:32:40Z,42.805,6.029,13.2976,4.60040,2472.047,2017-11-22T02:34:08Z
2017-11-22T00:35:43Z,42.805,6.029,13.2988,4.60021,2472.024,2017-11-22T02:37:11Z
2017-11-22T00:38:46Z,42.805,6.029,13.2978,4.60056,2472.047,2017-11-22T02:40:14Z
2017-11-22T00:41:49Z,42.805,6.029,13.2975,4.60039,2472.032,2017-11-22T02:43:17Z
2017-11-22T00:44:52Z,42.805,6.029,13.2977,4.60030,2472.032,2017-11-22T02:46:20Z
2017-11-22T00:47:55Z,42.805,6.029,13.2984,4.60035,2472.069,2017-11-22T02:49:23Z
2017-11-22T00:50:58Z,42.805,6.029,13.2967,4.60026,2472.047,2017-11-22T02:52:25Z
2017-11-22T00:54:00Z,42.805,6.029,13.2950,4.60042,2472.002,2017-11-22T02:55:28Z
2017-11-22T00:57:03Z,42.805,6.029,13.2986,4.60042,2472.047,2017-11-22T02:58:31Z
2017-11-22T01:00:06Z,42.805,6.029,13.2949,4.60009,2472.047,2017-11-22T03:01:34Z
2017-11-22T01:03:09Z,42.805,6.029,13.2972,4.60022,2472.032,2017-11-22T03:04:37Z
2017-11-22T01:06:12Z,42.805,6.029,13.2977,4.60038,2472.032,2017-11-22T03:07:40Z
2017-11-22T01:09:15Z,42.805,6.029,13.2972,4.60030,2472.024,2017-11-22T03:10:43Z
2017-11-22T01:12:18Z,42.805,6.029,13.2980,4.60049,2472.01,2017-11-22T03:13:46Z
2017-11-22T01:15:21Z,42.805,6.029,13.2964,4.60027,2472.032,2017-11-22T03:16:49Z
2017-11-22T01:18:24Z,42.805,6.029,13.2957,4.60015,2472.024,2017-11-22T03:19:51Z
2017-11-22T01:21:26Z,42.805,6.029,13.2963,4.59995,2472.047,2017-11-22T03:22:54Z
2017-11-22T01:24:29Z,42.805,6.029,13.2968,4.59999,2472.032,2017-11-22T03:25:57Z
2017-11-22T01:27:32Z,42.805,6.029,13.2970,4.60008,2472.047,2017-11-22T03:29:00Z
2017-11-22T01:30:35Z,42.805,6.029,13.2983,4.60030,2471.979,2017-11-22T03:32:03Z
2017-11-22T01:33:38Z,42.805,6.029,13.2983,4.60040,2472.047,2017-11-22T03:35:06Z
2017-11-22T01:36:41Z,42.805,6.029,13.2971,4.60029,2472.047,2017-11-22T03:38:09Z
2017-11-22T01:39:44Z,42.805,6.029,13.2986,4.60046,2472.055,2017-11-22T03:41:12Z
2017-11-22T01:42:47Z,42.805,6.029,13.2984,4.60023,2472.024,2017-11-22T03:44:15Z
2017-11-22T01:45:50Z,42.805,6.029,13.2982,4.59993,2472.024,2017-11-22T03:47:18Z
2017-11-22T01:48:52Z,42.805,6.029,13.2991,4.60012,2472.024,2017-11-22T03:50:20Z
2017-11-22T01:51:55Z,42.805,6.029,13.2994,4.60020,2472.01,2017-11-22T03:53:23Z
2017-11-22T01:54:58Z,42.805,6.029,13.2978,4.60039,2471.987,2017-11-22T03:56:26Z
2017-11-22T01:58:01Z,42.805,6.029,13.2983,4.60016,2472.024,2017-11-22T03:59:29Z
2017-11-22T02:01:04Z,42.805,6.029,13.2986,4.60049,2472.01,2017-11-22T04:02:32Z
2017-11-22T02:04:07Z,42.805,6.029,13.2985,4.60020,2472.002,2017-11-22T04:05:35Z
2017-11-22T02:07:10Z,42.805,6.029,13.2994,4.59993,2472.024,2017-11-22T04:08:38Z
2017-11-22T02:10:13Z,42.805,6.029,13.2983,4.60002,2472.01,2017-11-22T04:11:41Z
2017-11-22T02:13:16Z,42.805,6.029,13.2986,4.60007,2471.987,2017-11-22T04:14:44Z
2017-11-22T02:16:19Z,42.805,6.029,13.2957,4.59998,2471.964,2017-11-22T04:17:46Z
2017-11-22T02:19:21Z,42.805,6.029,13.2986,4.60013,2472.024,2017-11-22T04:20:49Z
2017-11-22T02:22:24Z,42.805,6.029,13.2970,4.59998,2472.01,2017-11-22T04:23:52Z
2017-11-22T02:25:27Z,42.805,6.029,13.2970,4.59972,2472.032,2017-11-22T04:26:55Z
2017-11-22T02:28:30Z,42.805,6.029,13.2958,4.59979,2471.987,2017-11-22T04:29:58Z
2017-11-22T02:31:33Z,42.805,6.029,13.2952,4.59987,2472.024,2017-11-22T04:33:01Z
2017-11-22T02:34:36Z,42.805,6.029,13.2968,4.59972,2472.002,2017-11-22T04:36:04Z
2017-11-22T02:37:39Z,42.805,6.029,13.2958,4.59991,2472.039,2017-11-22T04:39:07Z
2017-11-22T02:40:42Z,42.805,6.029,13.2970,4.59986,2472.002,2017-11-22T04:42:10Z
2017-11-22T02:43:45Z,42.805,6.029,13.2951,4.59985,2471.987,2017-11-22T04:45:12Z
2017-11-22T02:46:47Z,42.805,6.029,13.2952,4.59977,2472.002,2017-11-22T04:48:15Z
2017-11-22T02:49:50Z,42.805,6.029,13.2959,4.59975,2472.002,2017-11-22T04:51:18Z
2017-11-22T02:52:53Z,42.805,6.029,13.2964,4.60001,2472.01,2017-11-22T04:54:21Z
2017-11-22T02:55:56Z,42.805,6.029,13.2952,4.59972,2471.964,2017-11-22T04:57:24Z
2017-11-22T02:58:59Z,42.805,6.029,13.2958,4.59973,2472.002,2017-11-22T05:00:27Z
2017-11-22T03:02:02Z,42.805,6.029,13.2945,4.59986,2472.002,2017-11-22T05:03:30Z
2017-11-22T03:05:05Z,42.805,6.029,13.2957,4.59967,2471.987,2017-11-22T05:06:33Z
2017-11-22T03:08:08Z,42.805,6.029,13.2946,4.60008,2472.002,2017-11-22T05:09:36Z
2017-11-22T03:11:11Z,42.805,6.029,13.2962,4.60029,2471.979,2017-11-22T05:12:39Z
2017-11-22T03:14:13Z,42.805,6.029,13.2956,4.59981,2472.002,2017-11-22T05:15:41Z
2017-11-22T03:17:16Z,42.805,6.029,13.2951,4.59995,2472.002,2017-11-22T05:18:44Z
2017-11-22T03:20:19Z,42.805,6.029,13.2948,4.59982,2472.002,2017-11-22T05:21:47Z
2017-11-22T03:23:22Z,42.805,6.029,13.2950,4.59974,2471.964,2017-11-22T05:24:50Z
2017-11-22T03:26:25Z,42.805,6.029,13.2996,4.59992,2472.002,2017-11-22T05:27:53Z
2017-11-22T03:29:28Z,42.805,6.029,13.2959,4.59986,2472.01,2017-11-22T05:30:56Z
2017-11-22T03:32:31Z,42.805,6.029,13.2978,4.59967,2471.987,2017-11-22T05:33:59Z
2017-11-22T03:35:34Z,42.805,6.029,13.2955,4.59990,2472.002,2017-11-22T05:37:02Z
2017-11-22T03:38:37Z,42.805,6.029,13.2953,4.59993,2472.002,2017-11-22T05:40:05Z
2017-11-22T03:41:40Z,42.805,6.029,13.2954,4.59992,2471.964,2017-11-22T05:43:07Z
2017-11-22T03:44:42Z,42.805,6.029,13.2967,4.59988,2472.01,2017-11-22T05:46:10Z
2017-11-22T03:47:45Z,42.805,6.029,13.2986,4.59980,2472.024,2017-11-22T05:49:13Z
2017-11-22T03:50:48Z,42.805,6.029,13.2961,4.59982,2472.024,2017-11-22T05:52:16Z
2017-11-22T03:53:51Z,42.805,6.029,13.2957,4.59978,2472.024,2017-11-22T05:55:19Z
2017-11-22T03:56:54Z,42.805,6.029,13.2954,4.59970,2471.979,2017-11-22T05:58:22Z
2017-11-22T03:59:57Z,42.805,6.029,13.2958,4.59978,2472.024,2017-11-22T06:01:25Z
2017-11-22T04:03:00Z,42.805,6.029,13.2964,4.59972,2472.024,2017-11-22T06:04:28Z
2017-11-22T04:06:03Z,42.805,6.029,13.2956,4.59974,2472.002,2017-11-22T06:07:31Z
2017-11-22T04:09:06Z,42.805,6.029,13.2957,4.60001,2472.01,2017-11-22T06:10:33Z
2017-11-22T04:12:08Z,42.805,6.029,13.2952,4.59978,2472.024,2017-11-22T06:13:36Z
2017-11-22T04:15:11Z,42.805,6.029,13.2964,4.59988,2472.002,2017-11-22T06:16:39Z
2017-11-22T04:18:14Z,42.805,6.029,13.2962,4.59988,2472.024,2017-11-22T06:19:42Z
2017-11-22T04:21:17Z,42.805,6.029,13.2978,4.59979,2472.024,2017-11-22T06:22:45Z
2017-11-22T04:24:20Z,42.805,6.029,13.2952,4.59987,2472.024,2017-11-22T06:25:48Z
2017-11-22T04:27:23Z,42.805,6.029,13.2957,4.59998,2472.024,2017-11-22T06:28:51Z
2017-11-22T04:30:26Z,42.805,6.029,13.2962,4.59977,2472.002,2017-11-22T06:31:54Z
2017-11-22T04:33:29Z,42.805,6.029,13.2960,4.59981,2472.024,2017-11-22T06:34:57Z
2017-11-22T04:36:32Z,42.805,6.029,13.2961,4.59985,2472.01,2017-11-22T06:37:59Z
2017-11-22T04:39:34Z,42.805,6.029,13.2960,4.59979,2471.987,2017-11-22T06:41:02Z
2017-11-22T04:42:37Z,42.805,6.029,13.2970,4.60001,2472.047,2017-11-22T06:44:05Z
2017-11-22T04:45:40Z,42.805,6.029,13.2961,4.59975,2472.024,2017-11-22T06:47:08Z
2017-11-22T04:48:43Z,42.805,6.029,13.2968,4.59972,2472.01,2017-11-22T06:50:11Z
2017-11-22T04:51:46Z,42.805,6.029,13.2963,4.59981,2472.047,2017-11-22T06:53:14Z
2017-11-22T04:54:49Z,42.805,6.029,13.2966,4.59981,2472.055,2017-11-22T06:56:17Z
2017-11-22T04:57:52Z,42.805,6.029,13.2968,4.59992,2472.032,2017-11-22T06:59:20Z
2017-11-22T05:00:55Z,42.805,6.029,13.2961,4.59975,2472.055,2017-11-22T07:02:23Z
2017-11-22T05:03:58Z,42.805,6.029,13.2961,4.59978,2472.01,2017-11-22T07:05:25Z
2017-11-22T05:07:00Z,42.805,6.029,13.2968,4.59985,2472.032,2017-11-22T07:08:28Z
2017-11-22T05:10:03Z,42.805,6.029,13.2962,4.59988,2472.047,2017-11-22T07:11:31Z
2017-11-22T05:13:06Z,42.805,6.029,13.2961,4.59992,2472.069,2017-11-22T07:14:34Z
2017-11-22T05:16:09Z,42.805,6.029,13.2968,4.59992,2472.069,2017-11-22T07:17:37Z
2017-11-22T05:19:12Z,42.805,6.029,13.2974,4.59985,2472.002,2017-11-22T07:20:40Z
2017-11-22T05:22:15Z,42.805,6.029,13.2969,4.59985,2472.069,2017-11-22T07:23:43Z
2017-11-22T05:25:18Z,42.805,6.029,13.2972,4.59985,2472.047,2017-11-22T07:26:46Z
2017-11-22T05:28:21Z,42.805,6.029,13.2978,4.59989,2472.069,2017-11-22T07:29:49Z
2017-11-22T05:31:24Z,42.805,6.029,13.2986,4.59986,2472.069,2017-11-22T07:32:52Z
2017-11-22T05:34:26Z,42.805,6.029,13.2978,4.59991,2472.069,2017-11-22T07:35:54Z
2017-11-22T05:37:29Z,42.805,6.029,13.2964,4.59990,2472.069,2017-11-22T07:38:57Z
2017-11-22T05:40:32Z,42.805,6.029,13.2973,4.59985,2472.047,2017-11-22T07:42:00Z
2017-11-22T05:43:35Z,42.805,6.029,13.2973,4.59993,2472.069,2017-11-22T07:45:03Z
2017-11-22T05:46:38Z,42.805,6.029,13.2972,4.59993,2472.055,2017-11-22T07:48:06Z
2017-11-22T05:49:41Z,42.805,6.029,13.2977,4.59999,2472.062,2017-11-22T07:51:09Z
2017-11-22T05:52:44Z,42.805,6.029,13.2983,4.59994,2472.055,2017-11-22T07:54:12Z
2017-11-22T05:55:47Z,42.805,6.029,13.2970,4.59978,2472.055,2017-11-22T07:57:15Z
2017-11-22T05:58:50Z,42.805,6.029,13.2964,4.59981,2472.077,2017-11-22T08:00:18Z
2017-11-22T06:01:53Z,42.805,6.029,13.2973,4.59992,2472.092,2017-11-22T08:03:20Z
2017-11-22T06:04:55Z,42.805,6.029,13.2963,4.59982,2472.092,2017-11-22T08:06:23Z
2017-11-22T06:07:58Z,42.805,6.029,13.2968,4.60002,2472.1,2017-11-22T08:09:26Z
2017-11-22T06:11:01Z,42.805,6.029,13.2971,4.59989,2472.1,2017-11-22T08:12:29Z
2017-11-22T06:14:04Z,42.805,6.029,13.2973,4.60002,2472.077,2017-11-22T08:15:32Z
2017-11-22T06:17:07Z,42.805,6.029,13.2972,4.59989,2472.115,2017-11-22T08:18:35Z
2017-11-22T06:20:10Z,42.805,6.029,13.2985,4.59995,2472.115,2017-11-22T08:21:38Z
2017-11-22T06:23:13Z,42.805,6.029,13.2982,4.59986,2472.115,2017-11-22T08:24:41Z
2017-11-22T06:26:16Z,42.805,6.029,13.2970,4.59995,2472.092,2017-11-22T08:27:44Z
2017-11-22T06:29:19Z,42.805,6.029,13.2983,4.59989,2472.1,2017-11-22T08:30:46Z
2017-11-22T06:32:21Z,42.805,6.029,13.2974,4.59995,2472.115,2017-11-22T08:33:49Z
2017-11-22T06:35:24Z,42.805,6.029,13.2978,4.59992,2472.123,2017-11-22T08:36:52Z
2017-11-22T06:38:27Z,42.805,6.029,13.2968,4.60006,2472.123,2017-11-22T08:39:55Z
2017-11-22T06:41:30Z,42.805,6.029,13.3004,4.60000,2472.16,2017-11-22T08:42:58Z
2017-11-22T06:44:33Z,42.805,6.029,13.2976,4.59996,2472.16,2017-11-22T08:46:01Z
2017-11-22T06:47:36Z,42.805,6.029,13.3001,4.60000,2472.1,2017-11-22T08:49:04Z
2017-11-22T06:50:39Z,42.805,6.029,13.2982,4.59997,2472.137,2017-11-22T08:52:07Z
2017-11-22T06:53:42Z,42.805,6.029,13.2978,4.60003,2472.16,2017-11-22T08:55:10Z
2017-11-22T06:56:45Z,42.805,6.029,13.2970,4.59993,2472.137,2017-11-22T08:58:13Z
2017-11-22T06:59:47Z,42.805,6.029,13.2977,4.59995,2472.137,2017-11-22T09:01:15Z
2017-11-22T07:02:50Z,42.805,6.029,13.2978,4.59995,2472.16,2017-11-22T09:04:18Z
2017-11-22T07:05:53Z,42.805,6.029,13.2978,4.60007,2472.16,2017-11-22T09:07:21Z
2017-11-22T07:08:56Z,42.805,6.029,13.2982,4.59998,2472.16,2017-11-22T09:10:24Z
2017-11-22T07:11:59Z,42.805,6.029,13.2985,4.59992,2472.182,2017-11-22T09:13:27Z
2017-11-22T07:15:02Z,42.805,6.029,13.2974,4.59991,2472.168,2017-11-22T09:16:30Z
2017-11-22T07:18:05Z,42.805,6.029,13.2987,4.60018,2472.16,2017-11-22T09:19:33Z
2017-11-22T07:21:08Z,42.805,6.029,13.3000,4.59998,2472.16,2017-11-22T09:22:36Z
2017-11-22T07:24:11Z,42.805,6.029,13.2965,4.60001,2472.182,2017-11-22T09:25:39Z
2017-11-22T07:27:14Z,42.805,6.029,13.2948,4.60035,2472.182,2017-11-22T09:28:41Z
2017-11-22T07:30:16Z,42.805,6.029,13.2996,4.60013,2472.182,2017-11-22T09:31:44Z
2017-11-22T07:33:19Z,42.805,6.029,13.2996,4.60029,2472.16,2017-11-22T09:34:47Z
2017-11-22T07:36:22Z,42.805,6.029,13.2950,4.60021,2472.19,2017-11-22T09:37:50Z
2017-11-22T07:39:25Z,42.805,6.029,13.2982,4.60045,2472.205,2017-11-22T09:40:53Z
2017-11-22T07:42:28Z,42.805,6.029,13.2939,4.60063,2472.145,2017-11-22T09:43:56Z
2017-11-22T07:45:31Z,42.805,6.029,13.2996,4.60011,2472.205,2017-11-22T09:46:59Z
2017-11-22T07:48:34Z,42.805,6.029,13.2940,4.59995,2472.168,2017-11-22T09:50:02Z
2017-11-22T07:51:37Z,42.805,6.029,13.2936,4.60015,2472.19,2017-11-22T09:53:05Z
2017-11-22T07:54:40Z,42.805,6.029,13.2943,4.60008,2472.19,2017-11-22T09:56:07Z
2017-11-22T07:57:42Z,42.805,6.029,13.2963,4.59998,2472.182,2017-11-22T09:59:10Z
2017-11-22T08:00:45Z,42.805,6.029,13.2939,4.59980,2472.19,2017-11-22T10:02:13Z
2017-11-22T08:03:48Z,42.805,6.029,13.2936,4.59970,2472.205,2017-11-22T10:05:16Z
2017-11-22T08:06:51Z,42.805,6.029,13.2940,4.59964,2472.205,2017-11-22T10:08:19Z
2017-11-22T08:09:54Z,42.805,6.029,13.2936,4.59970,2472.227,2017-11-22T10:11:22Z
2017-11-22T08:12:57Z,42.805,6.029,13.2935,4.59967,2472.182,2017-11-22T10:14:25Z
2017-11-22T08:16:00Z,42.805,6.029,13.2938,4.59964,2472.205,2017-11-22T10:17:28Z
2017-11-22T08:19:03Z,42.805,6.029,13.2940,4.59963,2472.227,2017-11-22T10:20:31Z
2017-11-22T08:22:06Z,42.805,6.029,13.2936,4.59961,2472.205,2017-11-22T10:23:34Z
2017-11-22T08:25:09Z,42.805,6.029,13.2940,4.59963,2472.182,2017-11-22T10:26:36Z
2017-11-22T08:28:11Z,42.805,6.029,13.2935,4.59962,2472.227,2017-11-22T10:29:39Z
2017-11-22T08:31:14Z,42.805,6.029,13.2940,4.59964,2472.227,2017-11-22T10:32:42Z
2017-11-22T08:34:17Z,42.805,6.029,13.2933,4.59964,2472.213,2017-11-22T10:35:45Z
2017-11-22T08:37:20Z,42.805,6.029,13.2935,4.59964,2472.213,2017-11-22T10:38:48Z
2017-11-22T08:40:23Z,42.805,6.029,13.2933,4.59967,2472.205,2017-11-22T10:41:51Z
2017-11-22T08:43:26Z,42.805,6.029,13.2942,4.59965,2472.19,2017-11-22T10:44:54Z
2017-11-22T08:46:29Z,42.805,6.029,13.2941,4.59967,2472.213,2017-11-22T10:47:57Z
2017-11-22T08:49:32Z,42.805,6.029,13.2934,4.59964,2472.213,2017-11-22T10:51:00Z
2017-11-22T08:52:35Z,42.805,6.029,13.2939,4.59967,2472.213,2017-11-22T10:54:03Z
2017-11-22T08:55:37Z,42.805,6.029,13.2935,4.59968,2472.227,2017-11-22T10:57:05Z
2017-11-22T08:58:40Z,42.805,6.029,13.2939,4.59965,2472.213,2017-11-22T11:00:08Z
2017-11-22T09:01:43Z,42.805,6.029,13.2939,4.59969,2472.213,2017-11-22T11:03:11Z
2017-11-22T09:04:46Z,42.805,6.029,13.2940,4.59967,2472.19,2017-11-22T11:06:14Z
2017-11-22T09:07:49Z,42.805,6.029,13.2940,4.59970,2472.227,2017-11-22T11:09:17Z
2017-11-22T09:10:52Z,42.805,6.029,13.2937,4.59964,2472.25,2017-11-22T11:12:20Z
2017-11-22T09:13:55Z,42.805,6.029,13.2939,4.59965,2472.213,2017-11-22T11:15:23Z
2017-11-22T09:16:58Z,42.805,6.029,13.2940,4.59966,2472.227,2017-11-22T11:18:26Z
2017-11-22T09:20:01Z,42.805,6.029,13.2937,4.59962,2472.227,2017-11-22T11:21:29Z
2017-11-22T09:23:04Z,42.805,6.029,13.2935,4.59967,2472.19,2017-11-22T11:24:31Z
2017-11-22T09:26:06Z,42.805,6.029,13.2938,4.59968,2472.205,2017-11-22T11:27:34Z
2017-11-22T09:29:09Z,42.805,6.029,13.2934,4.59963,2472.227,2017-11-22T11:30:37Z
2017-11-22T09:32:12Z,42.805,6.029,13.2940,4.59970,2472.227,2017-11-22T11:33:40Z
2017-11-22T09:35:15Z,42.805,6.029,13.2938,4.59970,2472.205,2017-11-22T11:36:43Z
2017-11-22T09:38:18Z,42.805,6.029,13.2939,4.59974,2472.213,2017-11-22T11:39:46Z
2017-11-22T09:41:21Z,42.805,6.029,13.2942,4.59965,2472.25,2017-11-22T11:42:49Z
2017-11-22T09:44:24Z,42.805,6.029,13.2939,4.59961,2472.227,2017-11-22T11:45:52Z
2017-11-22T09:47:27Z,42.805,6.029,13.2940,4.59960,2472.227,2017-11-22T11:48:55Z
2017-11-22T09:50:30Z,42.805,6.029,13.2941,4.59970,2472.25,2017-11-22T11:51:58Z
2017-11-22T09:53:33Z,42.805,6.029,13.2945,4.59963,2472.213,2017-11-22T11:55:00Z
2017-11-22T09:56:35Z,42.805,6.029,13.2939,4.59967,2472.227,2017-11-22T11:58:03Z
2017-11-22T09:59:38Z,42.805,6.029,13.2945,4.59964,2472.25,2017-11-22T12:01:06Z
2017-11-22T10:02:41Z,42.805,6.029,13.2940,4.59984,2472.19,2017-11-22T12:04:09Z
2017-11-22T10:05:44Z,42.805,6.029,13.2952,4.59964,2472.227,2017-11-22T12:07:12Z
2017-11-22T10:08:47Z,42.805,6.029,13.2943,4.59962,2472.227,2017-11-22T12:10:15Z
2017-11-22T10:11:50Z,42.805,6.029,13.2946,4.59965,2472.227,2017-11-22T12:13:18Z
2017-11-22T10:14:53Z,42.805,6.029,13.2946,4.59964,2472.227,2017-11-22T12:16:21Z
2017-11-22T10:17:56Z,42.805,6.029,13.2943,4.59958,2472.19,2017-11-22T12:19:24Z
2017-11-22T10:20:59Z,42.805,6.029,13.2940,4.59959,2472.227,2017-11-22T12:22:27Z
2017-11-22T10:24:01Z,42.805,6.029,13.2940,4.59960,2472.19,2017-11-22T12:25:29Z
2017-11-22T10:27:04Z,42.805,6.029,13.2940,4.59961,2472.205,2017-11-22T12:28:32Z
2017-11-22T10:30:07Z,42.805,6.029,13.2940,4.59958,2472.213,2017-11-22T12:31:35Z
2017-11-22T10:33:10Z,42.805,6.029,13.2940,4.59958,2472.25,2017-11-22T12:34:38Z
2017-11-22T10:36:13Z,42.805,6.029,13.2938,4.59958,2472.213,2017-11-22T12:37:41Z
2017-11-22T10:39:16Z,42.805,6.029,13.2939,4.59960,2472.213,2017-11-22T12:40:44Z
2017-11-22T10:42:19Z,42.805,6.029,13.2938,4.59958,2472.205,2017-11-22T12:43:47Z
2017-11-22T10:45:22Z,42.805,6.029,13.2940,4.59958,2472.205,2017-11-22T12:46:50Z
2017-11-22T10:48:25Z,42.805,6.029,13.2940,4.59959,2472.213,2017-11-22T12:49:53Z
2017-11-22T10:51:28Z,42.805,6.029,13.2939,4.59962,2472.213,2017-11-22T12:52:55Z
2017-11-22T10:54:30Z,42.805,6.029,13.2938,4.59961,2472.205,2017-11-22T12:55:58Z
2017-11-22T10:57:33Z,42.805,6.029,13.2933,4.59964,2472.205,2017-11-22T12:59:01Z
2017-11-22T11:00:36Z,42.805,6.029,13.2941,4.59961,2472.19,2017-11-22T13:02:04Z
2017-11-22T11:03:39Z,42.805,6.029,13.2935,4.59962,2472.227,2017-11-22T13:05:07Z
2017-11-22T11:06:42Z,42.805,6.029,13.2935,4.59962,2472.205,2017-11-22T13:08:10Z
2017-11-22T11:09:45Z,42.805,6.029,13.2935,4.59963,2472.22,2017-11-22T13:11:13Z
2017-11-22T11:12:48Z,42.805,6.029,13.2940,4.59964,2472.213,2017-11-22T13:14:16Z
2017-11-22T11:15:51Z,42.805,6.029,13.2939,4.59967,2472.205,2017-11-22T13:17:19Z
2017-11-22T11:18:54Z,42.805,6.029,13.2942,4.59964,2472.182,2017-11-22T13:20:22Z
2017-11-22T11:21:57Z,42.805,6.029,13.2939,4.59960,2472.205,2017-11-22T13:23:24Z
2017-11-22T11:24:59Z,42.805,6.029,13.2942,4.59964,2472.205,2017-11-22T13:26:27Z
2017-11-22T11:28:02Z,42.805,6.029,13.2940,4.59963,2472.182,2017-11-22T13:29:30Z
2017-11-22T11:31:05Z,42.805,6.029,13.2938,4.59964,2472.19,2017-11-22T13:32:33Z
2017-11-22T11:34:08Z,42.805,6.029,13.2937,4.59962,2472.168,2017-11-22T13:35:36Z
2017-11-22T11:37:11Z,42.805,6.029,13.2933,4.59959,2472.205,2017-11-22T13:38:39Z
2017-11-22T11:40:14Z,42.805,6.029,13.2936,4.59964,2472.16,2017-11-22T13:41:42Z
2017-11-22T11:43:17Z,42.805,6.029,13.2940,4.59969,2472.213,2017-11-22T13:44:45Z
2017-11-22T11:46:20Z,42.805,6.029,13.2940,4.59962,2472.182,2017-11-22T13:47:48Z
2017-11-22T11:49:23Z,42.805,6.029,13.2940,4.59960,2472.145,2017-11-22T13:50:51Z
2017-11-22T11:52:25Z,42.805,6.029,13.2939,4.59962,2472.182,2017-11-22T13:53:53Z
2017-11-22T11:55:28Z,42.805,6.029,13.2935,4.59962,2472.182,2017-11-22T13:56:56Z
2017-11-22T11:58:31Z,42.805,6.029,13.2938,4.59961,2472.182,2017-11-22T13:59:59Z
2017-11-22T12:01:34Z,42.805,6.029,13.2936,4.59962,2472.145,2017-11-22T14:03:02Z
2017-11-22T12:04:37Z,42.805,6.029,13.2935,4.59961,2472.16,2017-11-22T14:06:05Z
2017-11-22T12:07:40Z,42.805,6.029,13.2936,4.59964,2472.182,2017-11-22T14:09:08Z
2017-11-22T12:10:43Z,42.805,6.029,13.2941,4.59967,2472.145,2017-11-22T14:12:11Z
2017-11-22T12:13:46Z,42.805,6.029,13.2962,4.59979,2472.145,2017-11-22T14:15:14Z
2017-11-22T12:16:49Z,42.805,6.029,13.2982,4.59990,2472.168,2017-11-22T14:18:17Z
2017-11-22T12:19:52Z,42.805,6.029,13.2962,4.59997,2472.16,2017-11-22T14:21:19Z
2017-11-22T12:22:54Z,42.805,6.029,13.2975,4.59976,2472.123,2017-11-22T14:24:22Z
2017-11-22T12:25:57Z,42.805,6.029,13.2954,4.59971,2472.168,2017-11-22T14:27:25Z
2017-11-22T12:29:00Z,42.805,6.029,13.2961,4.59998,2472.145,2017-11-22T14:30:28Z
2017-11-22T12:32:03Z,42.805,6.029,13.2980,4.59970,2472.137,2017-11-22T14:33:31Z
2017-11-22T12:35:06Z,42.805,6.029,13.2968,4.60012,2472.16,2017-11-22T14:36:34Z
2017-11-22T12:38:09Z,42.805,6.029,13.2970,4.60029,2472.145,2017-11-22T14:39:37Z
2017-11-22T12:41:12Z,42.805,6.029,13.2973,4.60018,2472.137,2017-11-22T14:42:40Z
2017-11-22T12:44:15Z,42.805,6.029,13.2970,4.60023,2472.123,2017-11-22T14:45:43Z
2017-11-22T12:47:18Z,42.805,6.029,13.2975,4.60009,2472.137,2017-11-22T14:48:46Z
2017-11-22T12:50:21Z,42.805,6.029,13.2978,4.60000,2472.168,2017-11-22T14:51:48Z
2017-11-22T12:53:23Z,42.805,6.029,13.2973,4.60042,2472.16,2017-11-22T14:54:51Z
2017-11-22T12:56:26Z,42.805,6.029,13.2972,4.60036,2472.137,2017-11-22T14:57:54Z
2017-11-22T12:59:29Z,42.805,6.029,13.2970,4.60032,2472.145,2017-11-22T15:00:57Z
2017-11-22T13:02:32Z,42.805,6.029,13.2975,4.60018,2472.137,2017-11-22T15:04:00Z
2017-11-22T13:05:35Z,42.805,6.029,13.2962,4.60007,2472.145,2017-11-22T15:07:03Z
2017-11-22T13:08:38Z,42.805,6.029,13.2962,4.60018,2472.115,2017-11-22T15:10:06Z
2017-11-22T13:11:41Z,42.805,6.029,13.2958,4.60025,2472.137,2017-11-22T15:13:09Z
2017-11-22T13:14:44Z,42.805,6.029,13.2955,4.60000,2472.123,2017-11-22T15:16:12Z
2017-11-22T13:17:47Z,42.805,6.029,13.2957,4.59989,2472.115,2017-11-22T15:19:15Z
2017-11-22T13:20:49Z,42.805,6.029,13.2948,4.59984,2472.1,2017-11-22T15:22:17Z
2017-11-22T13:23:52Z,42.805,6.029,13.2957,4.60015,2472.115,2017-11-22T15:25:20Z
2017-11-22T13:26:55Z,42.805,6.029,13.2951,4.59987,2472.1,2017-11-22T15:28:23Z
2017-11-22T13:29:58Z,42.805,6.029,13.2956,4.59984,2472.092,2017-11-22T15:31:26Z
2017-11-22T13:33:01Z,42.805,6.029,13.2950,4.59990,2472.137,2017-11-22T15:34:29Z
2017-11-22T13:36:04Z,42.805,6.029,13.2948,4.60005,2472.115,2017-11-22T15:37:32Z
2017-11-22T13:39:07Z,42.805,6.029,13.2954,4.59994,2472.115,2017-11-22T15:40:35Z
2017-11-22T13:42:10Z,42.805,6.029,13.2947,4.59992,2472.137,2017-11-22T15:43:38Z
2017-11-22T13:45:13Z,42.805,6.029,13.2948,4.59993,2472.115,2017-11-22T15:46:41Z
2017-11-22T13:48:16Z,42.805,6.029,13.2950,4.59984,2472.092,2017-11-22T15:49:44Z
2017-11-22T13:51:18Z,42.805,6.029,13.2950,4.59986,2472.137,2017-11-22T15:52:46Z
2017-11-22T13:54:21Z,42.805,6.029,13.2950,4.59987,2472.115,2017-11-22T15:55:49Z
2017-11-22T13:57:24Z,42.805,6.029,13.2946,4.59987,2472.092,2017-11-22T15:58:52Z
2017-11-22T14:00:27Z,42.805,6.029,13.2943,4.59984,2472.1,2017-11-22T16:01:55Z
2017-11-22T14:03:30Z,42.805,6.029,13.2957,4.59987,2472.092,2017-11-22T16:04:58Z
2017-11-22T14:06:33Z,42.805,6.029,13.2945,4.59981,2472.077,2017-11-22T16:08:01Z
2017-11-22T14:09:36Z,42.805,6.029,13.2948,4.59987,2472.115,2017-11-22T16:11:04Z
2017-11-22T14:12:39Z,42.805,6.029,13.2952,4.59984,2472.115,2017-11-22T16:14:07Z
2017-11-22T14:15:42Z,42.805,6.029,13.2954,4.59987,2472.077,2017-11-22T16:17:10Z
2017-11-22T14:18:44Z,42.805,6.029,13.2954,4.59987,2472.077,2017-11-22T16:20:12Z
2017-11-22T14:21:47Z,42.805,6.029,13.2954,4.59987,2472.069,2017-11-22T16:23:15Z
2017-11-22T14:24:50Z,42.805,6.029,13.2956,4.59992,2472.077,2017-11-22T16:26:18Z
2017-11-22T14:27:53Z,42.805,6.029,13.2956,4.59990,2472.055,2017-11-22T16:29:21Z
2017-11-22T14:30:56Z,42.805,6.029,13.2953,4.59992,2472.032,2017-11-22T16:32:24Z
2017-11-22T14:33:59Z,42.805,6.029,13.2950,4.59994,2472.077,2017-11-22T16:35:27Z
2017-11-22T14:37:02Z,42.805,6.029,13.2949,4.59987,2472.092,2017-11-22T16:38:30Z
2017-11-22T14:40:05Z,42.805,6.029,13.2951,4.59988,2472.092,2017-11-22T16:41:33Z
2017-11-22T14:43:08Z,42.805,6.029,13.2949,4.59989,2472.047,2017-11-22T16:44:36Z
2017-11-22T14:46:11Z,42.805,6.029,13.2950,4.59987,2472.055,2017-11-22T16:47:39Z
2017-11-22T14:49:14Z,42.805,6.029,13.2954,4.59989,2472.069,2017-11-22T16:50:41Z
2017-11-22T14:52:16Z,42.805,6.029,13.2946,4.59981,2472.092,2017-11-22T16:53:44Z
2017-11-22T14:55:19Z,42.805,6.029,13.2951,4.59987,2472.077,2017-11-22T16:56:47Z
2017-11-22T14:58:22Z,42.805,6.029,13.2954,4.59987,2472.077,2017-11-22T16:59:50Z